South Paris, Maine, United States (04281)
Lat: 44.22N, Lon: 70.51W
Wx Zone: MEZ012
Local Info
Past Weather Observations for Thursday, December 18, 2014

NOTE: This archive is for the closest National Weather Service station to South Paris. Information may differ from the station used for current weather conditions.

Click here for Long-term Archive

Time Weather Temperature Dewpoint Humidity Pressure Winds Precip Visibility
23:55
Mostly Cloudy
32°F / 0°C 21°F / -6°C 64% 29.77 in
(1008 mb)
NW 3.5 mph
(NW 6 kph)
- 10SM
23:35
Partly Cloudy
32°F / 0°C 21°F / -6°C 64% 29.77 in
(1008 mb)
NNW 11.5 mph
(NNW 19 kph)
- 10SM
23:15
Partly Cloudy
34°F / 1°C 21°F / -6°C 60% 29.77 in
(1008 mb)
NW 11.5 mph
(NW 19 kph)
- 10SM
22:55
Overcast
34°F / 1°C 23°F / -5°C 65% 29.8 in
(1009 mb)
NNW 8.1 mph
(NNW 13 kph)
- 10SM
22:35
Overcast
34°F / 1°C 25°F / -4°C 70% 29.8 in
(1009 mb)
NW 6.9 mph
(NW 11 kph)
- 10SM
22:15
Overcast
34°F / 1°C 23°F / -5°C 65% 29.8 in
(1009 mb)
NW 6.9 mph
(NW 11 kph)
- 10SM
21:55
Overcast
34°F / 1°C 25°F / -4°C 70% 29.77 in
(1008 mb)
NW 8.1 mph
(NW 13 kph)
- 10SM
21:35
Overcast
34°F / 1°C 25°F / -4°C 70% 29.77 in
(1008 mb)
NW 12.7 mph
(NW 20 kph)
- 10SM
21:15
Overcast
34°F / 1°C 25°F / -4°C 70% 29.8 in
(1009 mb)
NW 11.5 mph
(NW 19 kph)
- 10SM
20:55
Overcast
34°F / 1°C 25°F / -4°C 70% 29.77 in
(1008 mb)
NW 11.5 mph
(NW 19 kph)
- 10SM
20:35
Overcast
34°F / 1°C 23°F / -5°C 65% 29.77 in
(1008 mb)
NW 9.2 mph
(NW 15 kph)
- 10SM
20:15
Overcast
34°F / 1°C 25°F / -4°C 70% 29.77 in
(1008 mb)
NW 9.2 mph
(NW 15 kph)
- 10SM
19:55
Overcast
34°F / 1°C 25°F / -4°C 70% 29.77 in
(1008 mb)
NW 8.1 mph
(NW 13 kph)
- 10SM
19:35
Mostly Cloudy
34°F / 1°C 25°F / -4°C 70% 29.77 in
(1008 mb)
NW 10.4 mph
(NW 17 kph)
- 10SM
19:15
Mostly Cloudy
34°F / 1°C 25°F / -4°C 70% 29.77 in
(1008 mb)
NW 12.7 mph
(NW 20 kph)
- 10SM
18:55
Partly Cloudy
34°F / 1°C 25°F / -4°C 70% 29.77 in
(1008 mb)
NW 11.5 mph
(NW 19 kph)
- 10SM
18:35
Overcast
34°F / 1°C 25°F / -4°C 70% 29.77 in
(1008 mb)
NW 13.8 mph
(NW 22 kph)
- 10SM
18:15
Overcast
34°F / 1°C 25°F / -4°C 70% 29.77 in
(1008 mb)
NW 12.7 mph
(NW 20 kph)
- 10SM
17:55
Overcast
34°F / 1°C 25°F / -4°C 70% 29.77 in
(1008 mb)
NW 11.5 mph
(NW 19 kph)
- 10SM
17:35
Overcast
36°F / 2°C 25°F / -4°C 65% 29.74 in
(1007 mb)
NW 12.7 mph
(NW 20 kph)
- 10SM
17:15
Overcast
36°F / 2°C 25°F / -4°C 65% 29.74 in
(1007 mb)
NW 16.1 mph
(NW 26 kph)
- 10SM
16:55
Overcast
36°F / 2°C 25°F / -4°C 65% 29.74 in
(1007 mb)
NW 12.7 mph
(NW 20 kph)
- 10SM
16:35
Overcast
36°F / 2°C 27°F / -3°C 70% 29.71 in
(1006 mb)
NW 16.1 mph
(NW 26 kph)
- 10SM
16:15
Overcast
37°F / 3°C 27°F / -3°C 65% 29.71 in
(1006 mb)
NW 9.2 mph
(NW 15 kph)
- 10SM
15:55
Overcast
37°F / 3°C 27°F / -3°C 65% 29.71 in
(1006 mb)
NW 9.2 mph
(NW 15 kph)
- 10SM
15:35
Overcast
37°F / 3°C 27°F / -3°C 65% 29.71 in
(1006 mb)
NW 11.5 mph
(NW 19 kph)
- 10SM
15:15
Overcast
37°F / 3°C 25°F / -4°C 60% 29.71 in
(1006 mb)
NW 12.7 mph
(NW 20 kph)
- 10SM
14:55
Overcast
37°F / 3°C 27°F / -3°C 65% 29.68 in
(1005 mb)
NW 12.7 mph
(NW 20 kph)
- 10SM
14:35
Overcast
37°F / 3°C 25°F / -4°C 60% 29.68 in
(1005 mb)
NW 12.7 mph
(NW 20 kph)
- 10SM
14:15
Overcast
37°F / 3°C 25°F / -4°C 60% 29.68 in
(1005 mb)
NW 16.1 mph
(NW 26 kph)
- 10SM
13:55
Mostly Cloudy
37°F / 3°C 25°F / -4°C 60% 29.68 in
(1005 mb)
NW 15 mph
(NW 24 kph)
- 10SM
13:35
Mostly Cloudy
37°F / 3°C 27°F / -3°C 65% 29.68 in
(1005 mb)
NW 20.7 mph
(NW 33 kph)
- 10SM
13:15
Overcast
39°F / 4°C 27°F / -3°C 61% 29.68 in
(1005 mb)
NW 15 mph
(NW 24 kph)
- 10SM
12:55
Mostly Cloudy
37°F / 3°C 27°F / -3°C 65% 29.65 in
(1004 mb)
NW 12.7 mph
(NW 20 kph)
- 10SM
12:35
Mostly Cloudy
37°F / 3°C 28°F / -2°C 70% 29.68 in
(1005 mb)
NW 10.4 mph
(NW 17 kph)
- 10SM
12:15
Overcast
37°F / 3°C 27°F / -3°C 65% 29.68 in
(1005 mb)
NW 15 mph
(NW 24 kph)
- 10SM
11:55
Overcast
37°F / 3°C 27°F / -3°C 65% 29.68 in
(1005 mb)
NW 10.4 mph
(NW 17 kph)
- 10SM
11:35
Mostly Cloudy
37°F / 3°C 28°F / -2°C 70% 29.68 in
(1005 mb)
NW 11.5 mph
(NW 19 kph)
- 10SM
11:15
Overcast
37°F / 3°C 28°F / -2°C 70% 29.68 in
(1005 mb)
NW 11.5 mph
(NW 19 kph)
- 10SM
10:55
Overcast
37°F / 3°C 28°F / -2°C 70% 29.68 in
(1005 mb)
NW 9.2 mph
(NW 15 kph)
- 10SM
10:35
Overcast
37°F / 3°C 28°F / -2°C 70% 29.68 in
(1005 mb)
NW 9.2 mph
(NW 15 kph)
- 10SM
10:15
Overcast
37°F / 3°C 30°F / -1°C 75% 29.68 in
(1005 mb)
NW 10.4 mph
(NW 17 kph)
- 10SM
09:55
Overcast
37°F / 3°C 30°F / -1°C 75% 29.68 in
(1005 mb)
NW 9.2 mph
(NW 15 kph)
- 10SM
09:35
Overcast
37°F / 3°C 30°F / -1°C 75% 29.68 in
(1005 mb)
NW 9.2 mph
(NW 15 kph)
- 10SM
09:15
Overcast
36°F / 2°C 30°F / -1°C 81% 29.68 in
(1005 mb)
NW 6.9 mph
(NW 11 kph)
- 10SM
08:55
Overcast
36°F / 2°C 30°F / -1°C 81% 29.65 in
(1004 mb)
NW 8.1 mph
(NW 13 kph)
- 10SM
08:35
Mostly Cloudy
36°F / 2°C 32°F / 0°C 87% 29.65 in
(1004 mb)
NW 9.2 mph
(NW 15 kph)
- 10SM
08:15
Overcast
36°F / 2°C 32°F / 0°C 87% 29.65 in
(1004 mb)
NW 8.1 mph
(NW 13 kph)
- 10SM
07:55
Overcast
36°F / 2°C 30°F / -1°C 81% 29.65 in
(1004 mb)
NW 6.9 mph
(NW 11 kph)
0.01 in
(0.25 mm)
10SM
07:35
Overcast
36°F / 2°C 30°F / -1°C 81% 29.65 in
(1004 mb)
NW 5.8 mph
(NW 9 kph)
0.01 in
(0.25 mm)
10SM
07:15
Overcast
36°F / 2°C 32°F / 0°C 87% 29.65 in
(1004 mb)
NW 6.9 mph
(NW 11 kph)
- 10SM
06:55
Overcast
36°F / 2°C 32°F / 0°C 87% 29.65 in
(1004 mb)
NW 8.1 mph
(NW 13 kph)
0.01 in
(0.25 mm)
10SM
06:35
Overcast
36°F / 2°C 32°F / 0°C 87% 29.62 in
(1003 mb)
NW 9.2 mph
(NW 15 kph)
0.01 in
(0.25 mm)
10SM
06:15
Overcast
36°F / 2°C 32°F / 0°C 87% 29.62 in
(1003 mb)
NW 9.2 mph
(NW 15 kph)
- 10SM
05:55
Overcast
36°F / 2°C 32°F / 0°C 87% 29.62 in
(1003 mb)
NW 4.6 mph
(NW 7 kph)
- 10SM
05:35
Overcast
36°F / 2°C 32°F / 0°C 87% 29.62 in
(1003 mb)
NW 4.6 mph
(NW 7 kph)
- 10SM
05:15
Overcast
36°F / 2°C 32°F / 0°C 87% 29.62 in
(1003 mb)
NW 6.9 mph
(NW 11 kph)
- 10SM
04:55
Overcast
36°F / 2°C 34°F / 1°C 93% 29.62 in
(1003 mb)
NW 6.9 mph
(NW 11 kph)
- 10SM
04:35
Overcast
36°F / 2°C 32°F / 0°C 87% 29.62 in
(1003 mb)
W 3.5 mph
(W 6 kph)
- 10SM
04:15
Overcast
36°F / 2°C 32°F / 0°C 87% 29.62 in
(1003 mb)
Calm - 10SM
03:55
Overcast
36°F / 2°C 32°F / 0°C 87% 29.62 in
(1003 mb)
Calm - 10SM
03:35
Overcast
36°F / 2°C 32°F / 0°C 87% 29.62 in
(1003 mb)
Calm - 10SM
03:15
Overcast
36°F / 2°C 32°F / 0°C 87% 29.62 in
(1003 mb)
Calm - 10SM
02:55
Overcast
36°F / 2°C 32°F / 0°C 87% 29.62 in
(1003 mb)
Calm 0.02 in
(0.51 mm)
6SM
02:35
Overcast
34°F / 1°C 30°F / -1°C 87% 29.62 in
(1003 mb)
Calm 0.01 in
(0.25 mm)
5SM
02:15
Overcast
36°F / 2°C 34°F / 1°C 93% 29.62 in
(1003 mb)
Calm - 10SM
01:55
Overcast
36°F / 2°C 34°F / 1°C 93% 29.62 in
(1003 mb)
Calm - 10SM
01:35
Overcast
36°F / 2°C 32°F / 0°C 87% 29.62 in
(1003 mb)
Calm - 10SM
01:15
Mostly Cloudy
36°F / 2°C 32°F / 0°C 87% 29.62 in
(1003 mb)
Calm - 10SM
00:55
Overcast
36°F / 2°C 32°F / 0°C 87% 29.62 in
(1003 mb)
Calm - 10SM
00:35
Overcast
36°F / 2°C 32°F / 0°C 87% 29.62 in
(1003 mb)
Calm - 10SM
00:15
Overcast
36°F / 2°C 32°F / 0°C 87% 29.62 in
(1003 mb)
Calm - 10SM
Time Weather Temperature Dewpoint Humidity Pressure Winds Precip Visibility


Weather for websites

WeatherForYou.com, LLC is not responsible for any damages or problems caused by this service. Current weather conditions are obtained from the closest station including government and personal stations which may have varying degrees of accuracy. Weather forecasts are derived from the NOAA NDFD. Like all things, this site belongs to Jesus Christ... He just trusts me to maintain it. If you have any questions or comments email webmaster@weatherforyou.com

Copyright © 2014, WeatherForYou.com LLC. All rights reserved.